FW2522 Weather Reports


time (UTC)temp
C
wind
direction
speed
KPH
gust
KPH
rain 1hr
cm
rain 24hr
cm
rain mn
cm
humidity
%
barometer
mb
20260906051600 -17 0.0 0.0 0.00 0.00 0.00 1011.9
20260906050110 -17 0.0 0.0 0.00 0.00 0.00 1012.1
20260906044548 -17 0.0 0.0 0.00 0.00 0.00 1012.4
20260906043058 -17 0.0 0.0 0.00 0.00 0.00 1012.5
20260906041539 -17 0.0 0.0 0.00 0.00 0.00 1012.4
20260906040041 -17 0.0 0.0 0.00 0.00 0.00 1012.5
20260906034529 -17 0.0 0.0 0.00 0.00 0.00 1012.7
20260906033025 -17 0.0 0.0 0.00 0.00 0.00 1012.7
20260906031520 -17 0.0 0.0 0.00 0.00 0.00 1012.9
20260906030016 -17 0.0 0.0 0.00 0.00 0.00 1012.8
20260906024509 -17 0.0 0.0 0.00 0.00 0.00 1012.7
20260906023004 -17 0.0 0.0 0.00 0.00 0.00 1012.5
20260906021600 -17 0.0 0.0 0.00 0.00 0.00 1012.1
20260906020056 -17 0.0 0.0 0.00 0.00 0.00 1011.8
20260906014606 -17 0.0 0.0 0.00 0.00 0.00 1011.8
20260906013046 23 244 1.6 3.2 0.00 0.00 0.00 47 1012.0
20260906011553 23 244 0.0 1.6 0.00 0.00 0.00 49 1011.8
20260906010044 23 244 1.6 3.2 0.00 0.00 0.00 52 1011.7
20260906004544 23 244 0.0 1.6 0.00 0.00 0.00 54 1011.5
20260906003042 24 244 0.0 3.2 0.00 0.00 0.00 57 1011.4
20260906001541 25 244 0.0 4.8 0.00 0.00 0.00 58 1011.2
20260906000042 25 244 0.0 3.2 0.00 0.00 0.00 58 1011.3
20260905234551 25 283 1.6 4.8 0.00 0.00 0.00 57 1011.1
20260905233037 26 198 0.0 3.2 0.00 0.00 0.00 57 1010.8
20260905231537 26 198 0.0 4.8 0.00 0.00 0.00 55 1010.6
20260905230041 26 56 0.0 4.8 0.00 0.00 0.00 55 1010.6
20260905224537 27 39 1.6 4.8 0.00 0.00 0.00 53 1010.7
20260905223005 27 334 0.0 3.2 0.00 0.00 0.00 53 1010.7
20260905221503 -17 0.0 0.0 0.00 0.00 0.00 1010.7
20260905220029 -17 0.0 0.0 0.00 0.00 0.00 1010.9
20260905214524 -17 0.0 0.0 0.00 0.00 0.00 1010.9
20260905213052 -17 0.0 0.0 0.00 0.00 0.00 1011.1
20260905211550 24 277 3.2 11.3 0.00 0.00 0.00 50 1011.3
20260905210046 -17 0.0 0.0 0.00 0.00 0.00 1011.4
20260905204542 22 38 0.0 3.2 0.00 0.00 0.00 47 1011.6
20260905203041 22 38 0.0 3.2 0.00 0.00 0.00 47 1011.6
20260905201540 22 40 0.0 3.2 0.00 0.00 0.00 47 1012.0
20260905200049 21 61 3.2 8.0 0.00 0.00 0.00 49 1011.7
20260905194538 22 86 3.2 6.4 0.00 0.00 0.00 53 1012.1
20260905193041 22 295 3.2 14.5 0.00 0.00 0.00 56 1012.1
20260905191538 22 254 6.4 14.5 0.00 0.00 0.00 58 1010.9
20260905190046 23 261 11.3 22.5 0.00 0.00 0.00 58 1011.5
20260905184541 28 252 3.2 22.5 0.00 0.00 0.00 48 1011.3
20260905183031 32 85 6.4 19.3 0.00 0.00 0.00 43 1011.5
20260905181531 33 31 9.7 16.1 0.00 0.00 0.00 41 1011.1
20260905180026 34 79 3.2 11.3 0.00 0.00 0.00 39 1011.2
20260905174523 34 82 1.6 8.0 0.00 0.00 0.00 40 1011.7
20260905173022 34 280 3.2 9.7 0.00 0.00 0.00 37 1012.1
20260905171518 33 51 3.2 14.5 0.00 0.00 0.00 37 1012.4
20260905170019 33 78 4.8 11.3 0.00 0.00 0.00 38 1012.6
20260905164517 33 349 1.6 8.0 0.00 0.00 0.00 42 1012.8
20260905163013 33 51 4.8 12.9 0.00 0.00 0.00 42 1013.1
20260905161509 33 29 1.6 11.3 0.00 0.00 0.00 45 1013.2
20260905160037 32 101 3.2 12.9 0.00 0.00 0.00 44 1013.3
20260905154533 32 148 1.6 9.7 0.00 0.00 0.00 31 1013.5
20260905153043 31 186 1.6 9.7 0.00 0.00 0.00 30 1013.5
20260905151524 31 360 1.6 9.7 0.00 0.00 0.00 29 1013.4
20260905150022 30 204 3.2 11.3 0.00 0.00 0.00 30 1013.5
20260905144520 30 240 1.6 6.4 0.00 0.00 0.00 31 1013.7
20260905143044 28 200 3.2 6.4 0.00 0.00 0.00 34 1013.6
20260905141542 28 277 0.0 6.4 0.00 0.00 0.00 36 1013.5
20260905140010 28 272 3.2 9.7 0.00 0.00 0.00 36 1013.7
20260905134510 27 232 0.0 6.4 0.00 0.00 0.00 38 1013.7
20260905133035 27 232 1.6 4.8 0.00 0.00 0.00 37 1013.8
20260905131543 27 209 0.0 1.6 0.00 0.00 0.00 40 1013.7
20260905130130 26 210 1.6 4.8 0.00 0.00 0.00 40 1013.9
20260905124556 25 209 0.0 1.6 0.00 0.00 0.00 45 1013.8
20260905123054 24 209 0.0 1.6 0.00 0.00 0.00 48 1013.8
20260905121522 23 209 0.0 3.2 0.00 0.00 0.00 49 1013.8
20260905120021 22 210 0.0 1.6 0.00 0.00 0.00 50 1013.7
20260905114551 22 360 0.0 0.0 0.00 0.00 0.00 50 1013.6
20260905113049 21 360 0.0 1.6 0.00 0.00 0.00 49 1013.5
20260905111605 21 360 0.0 0.0 0.00 0.00 0.00 48 1013.2
20260905110048 22 360 0.0 1.6 0.00 0.00 0.00 48 1012.8
20260905104544 21 360 0.0 0.0 0.00 0.00 0.00 48 1012.5
20260905103044 21 360 0.0 0.0 0.00 0.00 0.00 48 1012.3
20260905101510 22 360 1.6 3.2 0.00 0.00 0.00 46 1012.6
20260905100015 22 360 0.0 0.0 0.00 0.00 0.00 46 1012.4
20260905094511 22 360 0.0 0.0 0.00 0.00 0.00 45 1012.6
20260905093006 22 360 0.0 0.0 0.00 0.00 0.00 46 1012.5
20260905091504 22 360 0.0 0.0 0.00 0.00 0.00 43 1012.4
20260905090003 22 360 0.0 0.0 0.00 0.00 0.00 39 1012.5
20260905084617 22 360 0.0 0.0 0.00 0.00 0.00 39 1012.7
20260905083058 22 360 0.0 3.2 0.00 0.00 0.00 39 1012.7
20260905081554 23 360 0.0 0.0 0.00 0.00 0.00 39 1012.9
20260905080054 23 360 0.0 0.0 0.00 0.00 0.00 38 1013.0
20260905074555 23 360 0.0 3.2 0.00 0.00 0.00 38 1013.0
20260905073058 23 360 0.0 3.2 0.00 0.00 0.00 38 1013.1
20260905071546 23 360 0.0 3.2 0.00 0.00 0.00 38 1013.3
20260905070044 23 360 0.0 1.6 0.00 0.00 0.00 39 1013.4
20260905064539 23 360 0.0 0.0 0.00 0.00 0.00 38 1013.5
20260905063037 23 360 0.0 1.6 0.00 0.00 0.00 38 1013.6
20260905061537 23 360 0.0 3.2 0.00 0.00 0.00 38 1013.8
20260905060037 23 360 0.0 1.6 0.00 0.00 0.00 39 1014.1
20260905054540 23 360 0.0 1.6 0.00 0.00 0.00 45 1014.2
20260905053026 25 205 0.0 0.0 0.00 0.00 0.00 44 1014.2